Wilmington, OH

5:17 AM EST on November 20, 2017 (GMT -0500)
Airborne

Weather History for KILN - October, 2011

Change the Weather History Date:

Friday, October 7, 2011

  Actual Average (KFFO) Record (KFFO)
Temperature  
Mean Temperature 63 °F -  
Max Temperature 80 °F 66 °F 89 °F (2007)
Min Temperature 48 °F 43 °F 30 °F (2001)
Degree Days  
Heating Degree Days 2    
Growing Degree Days 13 (Base 50)    
Moisture  
Dew Point 50 °F    
Average Humidity 71    
Maximum Humidity 100    
Minimum Humidity 36    
Precipitation  
Precipitation 0.00 in - - ()
Sea Level Pressure  
Sea Level Pressure 30.36 in    
Wind  
Wind Speed 3 mph (ESE)    
Max Wind Speed 7 mph    
Max Gust Speed -    
Visibility 8 miles    
Events      
Averages and records for this station are not official NWS values.
T = Trace of Precipitation, MM = Missing Value Source: NWS Daily Summary

Daily Weather History Graph

Daily Weather History Graph

Search for Another Location

Airport or City:

Trip Planner

Search our weather history database for the weather conditions in past years. The results will help you decide how hot, cold, wet, or windy it might be!

Date:

Astronomy

Oct. 07, 2011 Rise Set
Actual Time 7:36 AM EDT 7:08 PM EDT
Civil Twilight 7:09 AM EDT 7:35 PM EDT
Nautical Twilight 6:38 AM EDT 8:06 PM EDT
Astronomical Twilight 6:07 AM EDT 8:37 PM EDT
Moon 4:50 PM EDT (10/7) 3:25 AM EDT (10/7)
Length of Visible Light 12h 25m
Length of Day
11h 31m
Waxing Gibbous, 83% of the Moon is Illuminated
Oct 7
Waxing Gibbous
Oct 11
Full
Oct 19
Last Quarter
Oct 26
New
Nov 2
First Quarter

Hourly Weather History & Observations

Time (EDT) Temp. Dew Point Humidity Pressure Visibility Wind Dir Wind Speed Gust Speed Precip Events Conditions
12:54 AM 55.9 °F 50.0 °F 80% 30.32 in 10.0 mi ESE 4.6 mph - N/A   Clear
1:54 AM 55.9 °F 50.0 °F 80% 30.31 in 10.0 mi ESE 3.5 mph - N/A   Clear
2:54 AM 55.0 °F 50.0 °F 83% 30.32 in 10.0 mi ESE 3.5 mph - N/A   Clear
3:54 AM 54.0 °F 50.0 °F 86% 30.32 in 10.0 mi Calm Calm - N/A   Clear
4:54 AM 52.0 °F 48.9 °F 89% 30.33 in 9.0 mi ESE 3.5 mph - N/A   Clear
5:54 AM 48.0 °F 46.9 °F 96% 30.35 in 6.0 mi East 4.6 mph - N/A   Clear
6:54 AM 48.0 °F 46.9 °F 96% 30.37 in 4.0 mi Calm Calm - N/A   Clear
7:54 AM 48.0 °F 46.9 °F 96% 30.39 in 3.0 mi Calm Calm - N/A   Clear
8:02 AM 48.2 °F 48.2 °F 100% 30.38 in 2.5 mi Calm Calm - N/A   Clear
8:12 AM 51.8 °F 48.2 °F 88% 30.38 in 4.0 mi Calm Calm - N/A   Clear
8:54 AM 57.0 °F 53.1 °F 87% 30.40 in 5.0 mi Calm Calm - N/A   Clear
9:54 AM 64.0 °F 55.9 °F 75% 30.40 in 10.0 mi ESE 5.8 mph - N/A   Clear
10:54 AM 70.0 °F 55.0 °F 59% 30.41 in 10.0 mi SE 6.9 mph - N/A   Clear
11:54 AM 73.0 °F 53.1 °F 49% 30.41 in 10.0 mi ESE 5.8 mph - N/A   Clear
1:54 PM 77.0 °F 50.0 °F 39% 30.37 in 10.0 mi Variable 3.5 mph - N/A   Clear
2:54 PM 78.1 °F 48.9 °F 36% 30.35 in 10.0 mi ESE 3.5 mph - N/A   Clear
3:54 PM 78.1 °F 48.9 °F 36% 30.35 in 10.0 mi ESE 4.6 mph - N/A   Clear
5:54 PM 77.0 °F 48.9 °F 37% 30.34 in 10.0 mi East 4.6 mph - N/A   Clear
6:54 PM 73.0 °F 50.0 °F 44% 30.35 in 10.0 mi East 4.6 mph - N/A   Clear
7:54 PM 66.9 °F 51.1 °F 57% 30.37 in 10.0 mi East 4.6 mph - N/A   Clear
8:54 PM 64.0 °F 51.1 °F 63% 30.37 in 10.0 mi ESE 4.6 mph - N/A   Clear
10:54 PM 59.0 °F 51.1 °F 75% 30.37 in 10.0 mi ESE 5.8 mph - N/A   Clear
11:54 PM 57.9 °F 51.1 °F 78% 30.37 in 10.0 mi ESE 5.8 mph - N/A   Clear